This is the latest recevied weather packets stored in our database for station/object DM4XI-13. If no packets are shown the sender has not sent any weather packets the latest 10 day(s).
| Time | Temp. | Humidity | Pressure | Rain* | Wind** | Luminosity | Snow |
|---|---|---|---|---|---|---|---|
| 1778161020 | 12.22° C | 72% | 1011.8 hPa | 0 mm | 0.89 m/s, 174° | 51 W/m² | - |
| 1778160959 | 12.78° C | 71% | 1011.9 hPa | 0 mm | 1.79 m/s, 202° | 45 W/m² | - |
| 1778160898 | 12.78° C | 71% | 1012 hPa | 0 mm | 1.79 m/s, 303° | 42 W/m² | - |
| 1778160837 | 12.78° C | 71% | 1011.9 hPa | 0 mm | 1.34 m/s, 249° | 40 W/m² | - |
| 1778160776 | 12.78° C | 72% | 1011.9 hPa | 0 mm | 2.24 m/s, 251° | 38 W/m² | - |
| 1778160715 | 13.33° C | 72% | 1011.9 hPa | 0 mm | 0.45 m/s, 172° | 37 W/m² | - |
| 1778160654 | 13.33° C | 71% | 1011.9 hPa | 0 mm | 1.34 m/s, 282° | 43 W/m² | - |
| 1778160593 | 13.33° C | 70% | 1011.9 hPa | 0 mm | 1.34 m/s, 214° | 55 W/m² | - |
| 1778160532 | 13.89° C | 69% | 1011.8 hPa | 0 mm | 1.34 m/s, 210° | 76 W/m² | - |
| 1778160471 | 13.89° C | 69% | 1011.7 hPa | 0 mm | 1.79 m/s, 177° | 95 W/m² | - |
| 1778160410 | 13.89° C | 69% | 1012 hPa | 0 mm | 0.45 m/s, 213° | 119 W/m² | - |
| 1778160349 | 13.89° C | 68% | 1011.7 hPa | 0 mm | 1.79 m/s, 275° | 150 W/m² | - |
| 1778160288 | 13.89° C | 67% | 1011.9 hPa | 0 mm | 1.34 m/s, 251° | 185 W/m² | - |
| 1778160227 | 13.89° C | 67% | 1012 hPa | 0 mm | 0.89 m/s, 197° | 215 W/m² | - |
| 1778160166 | 13.89° C | 68% | 1011.9 hPa | 0 mm | 1.34 m/s, 237° | 257 W/m² | - |
| 1778160105 | 13.89° C | 69% | 1011.8 hPa | 0 mm | 0.45 m/s, 189° | 289 W/m² | - |
| 1778160044 | 13.89° C | 68% | 1012 hPa | 0 mm | 1.34 m/s, 272° | 305 W/m² | - |
| 1778159987 | 13.89° C | 68% | 1012 hPa | 0 mm | 0.89 m/s, 226° | 305 W/m² | - |
| 1778159922 | 13.33° C | 70% | 1011.8 hPa | 0 mm | 0.45 m/s, 271° | 321 W/m² | - |
| 1778159861 | 13.33° C | 71% | 1012 hPa | 0 mm | 0.89 m/s, 221° | 478 W/m² | - |
| 1778159799 | 13.33° C | 70% | 1011.8 hPa | 0 mm | 1.34 m/s, 285° | 498 W/m² | - |
| 1778159739 | 13.33° C | 69% | 1011.8 hPa | 0 mm | 3.13 m/s, 266° | 531 W/m² | - |
| 1778159678 | 13.33° C | 68% | 1011.9 hPa | 0 mm | 1.79 m/s, 285° | 441 W/m² | - |
| 1778159617 | 13.33° C | 68% | 1011.7 hPa | 0 mm | 2.24 m/s, 262° | 405 W/m² | - |
| 1778159556 | 13.33° C | 68% | 1011.9 hPa | 0 mm | 2.68 m/s, 287° | 393 W/m² | - |
* Rain latest hour (hover to see other rain measurements)
** Current wind speed in m/s (hover to see current wind gust speed)